250  
ASUS43 KLMK 192010  
RWRKY  
KENTUCKY REGIONAL WEATHER ROUNDUP  
NATIONAL WEATHER SERVICE LOUISVILLE KY  
400 PM EDT SAT APR 19 2014  
 
NOTE "FAIR" INDICATES FEW OR NO CLOUDS BELOW 12,000 FEET  
WITH NO SIGNIFICANT WEATHER AND/OR S TO VISIBILITY
.  
 
KYZ001>023-026-027-061>063-070>075-192100-  
WESTERN AND SOUTH CENTRAL KENTUCKY  
 
CITY SKY/WX TMP DP RH WIND PRES REMARKS
 
PADUCAH SUNNY 78 41 26 NE14 30.18F  
HENDERSON SUNNY 72 41 33 NE9 30.19F  
OWENSBORO SUNNY 74 38 27 NE8 30.19F  
HOPKINSVILLE SUNNY 75 41 29 N8 30.16F  
BOWLING GREEN SUNNY 74 40 29 E12G20 30.17F  
GLASGOW SUNNY 74 40 30 E9 30.17F  

 
 
KYZ024-025-028>034-038-045-046-053-192100-  
NORTH CENTRAL KENTUCKY  
 
CITY SKY/WX TMP DP RH WIND PRES REMARKS
 
LOUISVILLE/SDF MOSUNNY 74 36 25 NE14G20 30.20F  
LOUISVILLE/LOU SUNNY 75 37 25 MISG 30.20F  
FORT KNOX SUNNY 74 37 26 NE10 30.18F  

 
 
KYZ035>037-039>044-047>052-055>060-089>105-192100-  
NORTHEAST KENTUCKY  
 
CITY SKY/WX TMP DP RH WIND PRES REMARKS
 
LEXINGTON SUNNY 73 35 25 NE16 30.21F  
COVINGTON SUNNY 69 34 27 NE12 30.24F  
FRANKFORT SUNNY 72 35 25 E14G22 30.20F  

 
 
KYZ054-064>069-076>088-106>120-192100-  
SOUTHEAST KENTUCKY  
 
CITY SKY/WX TMP DP RH WIND PRES REMARKS
 
JACKSON SUNNY 74 34 23 NE6 30.17F  
LONDON MOSUNNY 74 36 25 N6G17 30.15F  
SOMERSET SUNNY 73 36 25 NE12G21 30.16F  
MIDDLESBORO PTSUNNY 72 36 27 E8 30.13F  
MONTICELLO PTCLDY 74 40 29 NE10 30.17F  

 
 
CLICK HERE TO GO TO PREVIOUS BULLETINS.

The Nexlab KY Page Main Text Page